Location: Iwkowa
(49.8210°N, 20.5761°E)
Time: 16:57:26
(UTC+02:00)

ISS - Visible Passes

Search period start: 21 May 2019 00:00
Search period end: 31 May 2019 00:00
Orbit: 407 x 410 km, 51.6° (Epoch: 22 May)

Date Brightness Start Highest point End Pass type
(mag) Time Alt. Az. Time Alt. Az. Time Alt. Az.
21 May -3.5 00:26:21 10° WNW 00:29:39 66° N 00:31:55 19° E visible
21 May -2.3 02:02:59 10° WNW 02:04:30 23° W 02:04:30 23° W visible
21 May -3.9 21:58:41 10° WSW 22:02:00 88° SSE 22:05:19 10° ENE visible
21 May -3.3 23:35:26 10° W 23:38:43 61° N 23:41:35 13° E visible
22 May -2.9 01:12:05 10° WNW 01:14:15 37° W 01:14:15 37° W visible
22 May -3.8 21:07:52 10° WSW 21:11:08 65° SSE 21:14:25 10° ENE visible
22 May -3.3 22:44:29 10° W 22:47:46 61° N 22:51:03 10° ENE visible
23 May -3.9 00:21:11 10° WNW 00:24:31 87° NNE 00:24:37 83° E visible
23 May -3.5 21:53:32 10° W 21:56:50 68° N 22:00:08 10° ENE visible
23 May -3.6 23:30:17 10° WNW 23:33:35 71° N 23:35:08 28° E visible
24 May -1.6 01:06:57 10° W 01:07:50 16° W 01:07:50 16° W visible
24 May -3.7 21:02:35 10° WSW 21:05:53 82° NNW 21:09:13 10° ENE visible
24 May -3.4 22:39:20 10° WNW 22:42:38 63° N 22:45:44 11° E visible
25 May -3.1 00:15:58 10° WNW 00:18:26 42° W 00:18:26 42° W visible
25 May -3.3 21:48:22 10° W 21:51:39 60° N 21:54:56 10° E visible
25 May -4.0 23:25:02 10° WNW 23:28:21 81° SSW 23:29:04 52° ESE visible
26 May -3.7 22:34:06 10° WNW 22:37:25 79° NNE 22:39:44 18° E visible
27 May -2.1 00:10:49 10° W 00:12:26 22° WSW 00:12:26 22° WSW visible
27 May -3.5 21:43:07 10° WNW 21:46:26 66° N 21:49:44 10° E visible
27 May -3.6 23:19:46 10° WNW 23:22:59 47° SSW 23:23:07 47° SSW visible
28 May -3.9 22:28:46 10° WNW 22:32:04 69° SSW 22:33:50 25° SE visible
29 May -1.3 00:06:00 10° W 00:06:32 12° WSW 00:06:32 12° WSW visible
29 May -3.8 21:37:48 10° WNW 21:41:07 88° NNE 21:44:26 10° ESE visible
29 May -2.5 23:14:37 10° W 23:17:15 25° SW 23:17:15 25° SW visible
30 May -3.1 22:23:28 10° W 22:26:35 38° SSW 22:28:00 25° SSE visible
